[[{"header":{"parameterUnit":"m.s-1","parameterCategory":1,"la1":30.2991,"la2":30.254,"lo1":-89.0895,"lo2":-89.0444,"dy":0.0017,"dx":0.0017,"nx":28,"ny":28,"refTime":"2025-03-26T21:00:00:Z","depth":0,"parameterNumber":2,"parameterNumberName":"U-component_of_WINDS"},"data":[0,0,0,0,0,0,0,0,0,0,0,0,0,0,0,0,0,0,0,0,0,0,0,0,0,0,0,0,0,0,0,0,0,0,0,0,0,0,0,0,0,0,0,0,0,0,0,0,0,0,0,0,0,0,0,0,0,0,-5.0304,-5.0305,0,-5.0375,-5.0376,-5.0377,-5.0335,-5.0333,-5.0331,-5.0329,-5.0401,-5.0405,-5.0408,0,0,0,0,0,0,0,0,0,0,0,0,0,-5.0133,-5.0137,-5.0304,-5.0305,-5.0306,-5.0375,-5.0376,-5.0377,-5.0335,-5.0333,-5.033,-5.0328,-5.04,-5.0404,-5.0409,0,0,0,0,0,0,0,0,0,0,0,0,0,-5.0206,-5.0138,-5.0304,-5.0293,-5.0293,-5.0375,-5.0376,-5.0377,-5.0336,-5.0333,-5.0329,-5.0327,-5.0398,-5.0404,-5.0409,-5.0506,0,0,-5.0427,-5.0429,0,0,0,0,0,0,0,0,-5.0202,-5.0213,-5.0294,-5.0294,-5.0294,-5.0343,-5.0342,-5.042,-5.0336,-5.0319,-5.0329,-5.0325,-5.0384,-5.0391,-5.0411,-5.0509,-5.0512,-5.0427,-5.0431,-5.0433,-5.0435,0,0,0,0,0,0,0,-5.0197,-5.0209,-5.0332,-5.0295,-5.0295,-5.0285,-5.0292,-5.0357,-5.0368,-5.0321,-5.0318,-5.0327,-5.0384,-5.0405,-5.0412,-5.0513,-5.0427,-5.0432,-5.0436,-5.0438,-5.0696,-5.0699,0,0,0,0,0,0,-5.0193,-5.0205,-5.033,-5.0334,-5.024,-5.0291,-5.0299,-5.033,-5.0367,-5.037,-5.0329,-5.0325,-5.0397,-5.0406,-5.0415,-5.053,-5.0433,-5.0439,-5.0442,-5.0693,-5.0697,-5.07,0,0,0,0,0,0,-5.0189,-5.0204,-5.0327,-5.0269,-5.0284,-5.0297,-5.0333,-5.0333,-5.0355,-5.0374,-5.0375,-5.0349,-5.0395,-5.0407,-5.0484,-5.0532,-5.0441,-5.0446,-5.0689,-5.0694,-5.0699,-5.0761,0,0,0,0,0,0,-5.0185,-5.0203,-5.0239,-5.027,-5.0287,-5.0395,-5.0336,-5.0337,-5.0365,-5.036,-5.0393,-5.0396,-5.0394,-5.0475,-5.0489,-5.0538,-5.0451,-5.0684,-5.0691,-5.0697,-5.0755,-5.0768,-5.0779,0,0,0,0,0,-5.0179,-5.0254,-5.0241,-5.0257,-5.0333,-5.0398,-5.0407,-5.0403,-5.0369,-5.0406,-5.0418,-5.0395,-5.0525,-5.0484,-5.0499,-5.055,-5.0681,-5.0689,-5.0696,-5.0749,-5.0765,-5.0778,0,0,0,0,0,0,-5.0227,-5.0257,-5.0244,-5.0331,-5.0363,-5.039,-5.0436,-5.042,-5.0461,-5.0454,-5.0448,-5.0456,-5.0536,-5.0551,-5.0505,-5.0646,-5.0598,-5.0609,-5.0633,-5.0648,-5.066,-5.0653,-5.0456,0,0,0,0,0,-5.0248,-5.0298,-5.0322,-5.0397,-5.0413,-5.0423,-5.0451,-5.0445,-5.0477,-5.0489,-5.0507,-5.0539,-5.0587,-5.0619,-5.0664,-5.0758,-5.0765,-5.0801,-5.0813,-5.0823,-5.0832,-5.0883,-5.0899,-5.0726,-5.0726,-5.0725,0,0,-5.0292,-5.0315,-5.0346,-5.0407,-5.0431,-5.0483,-5.0433,-5.049,-5.0529,-5.0498,-5.0572,-5.0587,-5.0622,-5.0708,-5.0747,-5.0723,-5.0882,-5.0833,-5.084,-5.0844,-5.0893,-5.0909,-5.0924,-5.0731,-5.073,-5.0729,0,0,-5.0397,-5.042,-5.0484,-5.051,-5.0546,-5.0552,-5.0568,-5.06,-5.0608,-5.0683,-5.0661,-5.0708,-5.0791,-5.0817,-5.0841,-5.096,-5.094,-5.0976,-5.1037,-5.1088,-5.1101,-5.1113,-5.1155,-5.117,-5.0985,-5.0985,-5.0985,0,-5.0446,-5.0523,-5.052,-5.0579,-5.0607,-5.0583,-5.0649,-5.0674,-5.0723,-5.0743,-5.0716,-5.0821,-5.0843,-5.0935,-5.0965,-5.0986,-5.1004,-5.097,-5.11,-5.1112,-5.1123,-5.1163,-5.1179,-5.0989,-5.0989,-5.0988,-5.0988,0,-5.0582,-5.0636,-5.0684,-5.0733,-5.0767,-5.083,-5.0836,-5.0871,-5.0865,-5.0874,-5.0951,-5.0977,-5.1028,-5.105,-5.1043,-5.1142,-5.1126,-5.11,-5.1051,-5.1143,-5.1181,-5.1196,-5.0995,-5.0993,-5.0992,-5.0991,0,0,-5.0715,-5.0764,-5.0782,-5.0804,-5.0845,-5.0887,-5.095,-5.1,-5.1029,-5.1066,-5.1118,-5.1191,-5.1167,-5.1195,-5.1192,-5.1236,-5.1329,-5.1204,-5.1205,-5.1225,-5.1439,-5.1457,-5.1475,-5.1317,-5.132,-5.1323,-5.1436,0,-5.0822,-5.093,-5.0931,-5.1031,-5.1081,-5.1062,-5.1116,-5.1147,-5.1159,-5.1204,-5.1217,-5.1268,-5.1234,-5.125,-5.1294,-5.1308,-5.1371,-5.1301,-5.1365,-5.1367,-5.1354,-5.1494,-5.1513,-5.1618,-5.1451,-5.1453,-5.1455,0,-5.096,-5.1001,-5.1106,-5.1141,-5.1162,-5.1211,-5.1258,-5.1302,-5.1338,-5.1343,-5.1376,-5.1367,-5.1431,-5.1383,-5.1472,-5.1424,-5.1451,-5.1463,-5.1467,-5.147,-5.1415,-5.15,-5.1652,-5.1667,-5.1478,-5.1476,-5.1475,0,-5.1045,-5.1128,-5.1201,-5.1222,-5.1264,-5.1299,-5.1319,-5.1352,-5.1383,-5.1425,-5.1444,-5.1494,-5.152,-5.1558,-5.1563,-5.1528,-5.1653,-5.1605,-5.1659,-5.1659,-5.1683,-5.1681,-5.1839,-5.1705,-5.1705,-5.1704,-5.1704,0,-5.1163,-5.1227,-5.1241,-5.1286,-5.1358,-5.136,-5.1432,-5.1449,-5.1479,-5.1527,-5.1514,-5.156,-5.1565,-5.1613,-5.1617,-5.169,-5.1703,-5.1709,-5.1709,-5.1709,-5.1708,-5.1724,-5.1716,-5.1708,-5.1708,-5.1707,-5.1706,0,-5.1268,-5.128,-5.1359,-5.1394,-5.1405,-5.1457,-5.1487,-5.153,-5.1542,-5.1604,-5.1619,-5.1637,-5.1693,-5.1703,-5.1768,-5.1772,-5.1858,-5.1852,-5.1846,-5.1844,-5.1897,-5.1892,-5.207,-5.2093,-5.1945,-5.1947,-5.1948,0,-5.1341,-5.1391,-5.1432,-5.1464,-5.1485,-5.1537,-5.1569,-5.1574,-5.1607,-5.1654,-5.1692,-5.1747,-5.179,-5.1881,-5.19,-5.1951,-5.1944,-5.2004,-5.1952,-5.195,-5.1944,-5.194,-5.1945,-5.2013,-5.2014,-5.2015,-5.2017,0,-5.1469,-5.1473,-5.152,-5.1569,-5.1608,-5.1647,-5.1684,-5.1711,-5.1721,-5.176,-5.1818,-5.1852,-5.192,-5.1975,-5.2026,-5.2046,-5.2033,-5.2034,-5.2048,-5.2047,-5.2041,-5.2044,-5.1871,-5.2028,-5.2027,-5.2026,-5.2026,-5.2025,-5.156,-5.1603,-5.1639,-5.1692,-5.1721,-5.1757,-5.18,-5.1818,-5.1866,-5.1922,-5.1922,-5.1985,-5.2022,-5.209,-5.2114,-5.2164,-5.2145,-5.2167,-5.2172,-5.2176,-5.2181,-5.2036,-5.2173,-5.2173,-5.2173,-5.2173,-5.2172,0,-5.1685,-5.1708,-5.1757,-5.181,-5.1853,-5.1839,-5.188,-5.1916,-5.1971,-5.2007,-5.2051,-5.2118,-5.2172,-5.2197,-5.225,-5.2286,-5.2281,-5.2299,-5.2295,-5.23,-5.2195,-5.2176,-5.2302,-5.2302,-5.2302,-5.2302,-5.2302,-5.2302,-5.1755,-5.1828,-5.1837,-5.1925,-5.1948,-5.201,-5.2035,-5.2068,-5.2097,-5.2172,-5.2217,-5.2233,-5.2265,-5.2321,-5.2371,-5.2377,-5.2396,-5.2417,-5.242,-5.2321,-5.2308,-5.2295,-5.2277,-5.2422,-5.2422,-5.2521,-5.2522,-5.2522]},{"header":{"parameterUnit":"m.s-1","parameterCategory":1,"la1":30.2991,"la2":30.254,"lo1":-89.0895,"lo2":-89.0444,"dy":0.0017,"dx":0.0017,"nx":28,"ny":28,"refTime":"2025-03-26T21:00:00:Z","depth":0,"parameterNumber":3,"parameterNumberName":"V-component_of_WINDS"},"data":[0,0,0,0,0,0,0,0,0,0,0,0,0,0,0,0,0,0,0,0,0,0,0,0,0,0,0,0,0,0,0,0,0,0,0,0,0,0,0,0,0,0,0,0,0,0,0,0,0,0,0,0,0,0,0,0,0,0,2.4575,2.4576,0,2.4685,2.4686,2.4687,2.4783,2.4784,2.4786,2.4787,2.4892,2.4894,2.4896,0,0,0,0,0,0,0,0,0,0,0,0,0,2.4444,2.4446,2.4575,2.4576,2.4578,2.4685,2.4686,2.4688,2.4783,2.4784,2.4786,2.4787,2.4892,2.4894,2.4896,0,0,0,0,0,0,0,0,0,0,0,0,0,2.4522,2.4447,2.4575,2.4639,2.4645,2.4684,2.4686,2.4688,2.4783,2.4784,2.4786,2.4788,2.4891,2.4893,2.4896,2.4879,0,0,2.4904,2.4905,0,0,0,0,0,0,0,0,2.4517,2.4527,2.4628,2.4634,2.4642,2.4722,2.4679,2.4752,2.4782,2.473,2.4787,2.4789,2.4834,2.4841,2.4858,2.4884,2.4888,2.4904,2.4906,2.4907,2.4908,0,0,0,0,0,0,0,2.4512,2.4522,2.4618,2.4629,2.4638,2.466,2.4673,2.4693,2.4771,2.4735,2.4742,2.4754,2.4838,2.4855,2.4861,2.489,2.4904,2.4907,2.4908,2.4909,2.4909,2.4908,0,0,0,0,0,0,2.4498,2.4517,2.4615,2.4622,2.4583,2.4661,2.4676,2.4695,2.4771,2.4785,2.4753,2.4758,2.485,2.4858,2.4865,2.4852,2.4907,2.491,2.4911,2.4911,2.4909,2.4907,0,0,0,0,0,0,2.4494,2.4505,2.461,2.4572,2.4587,2.4662,2.4682,2.4696,2.4713,2.4785,2.4799,2.4756,2.4851,2.4861,2.4876,2.4857,2.4911,2.4913,2.4913,2.491,2.4908,2.4823,0,0,0,0,0,0,2.449,2.4504,2.4499,2.4571,2.4588,2.462,2.4681,2.4697,2.4718,2.4727,2.4792,2.4804,2.4853,2.4871,2.4878,2.4861,2.4915,2.4915,2.4912,2.4909,2.4828,2.4818,2.481,0,0,0,0,0,2.4485,2.4468,2.4498,2.4509,2.4584,2.4619,2.4629,2.4688,2.4716,2.4712,2.4758,2.4802,2.4858,2.4872,2.4881,2.4864,2.4916,2.4912,2.4909,2.4832,2.482,2.481,0,0,0,0,0,0,2.4389,2.4479,2.4512,2.4519,2.4561,2.4635,2.4631,2.4673,2.4706,2.4712,2.4782,2.4796,2.4803,2.4835,2.4849,2.4853,2.4893,2.4891,2.4831,2.4821,2.4812,2.4804,2.4917,0,0,0,0,0,2.4369,2.4391,2.4468,2.4466,2.4486,2.4554,2.4571,2.4614,2.4659,2.4677,2.4724,2.4765,2.4792,2.4808,2.4837,2.4833,2.4849,2.4826,2.4817,2.4809,2.4807,2.4809,2.48,2.4895,2.4895,2.4895,0,0,2.4326,2.4378,2.4388,2.4448,2.4486,2.4506,2.4568,2.4587,2.4603,2.4679,2.4697,2.4733,2.4783,2.4789,2.4794,2.4816,2.4784,2.4805,2.4798,2.48,2.4805,2.4795,2.4787,2.4893,2.4893,2.4894,0,0,2.426,2.4302,2.4306,2.4343,2.4401,2.4447,2.4448,2.4517,2.4544,2.4564,2.4622,2.4641,2.4686,2.472,2.4743,2.4693,2.4735,2.47,2.4652,2.4654,2.4646,2.464,2.4623,2.4616,2.4697,2.4697,2.4697,0,2.42,2.4236,2.4302,2.4319,2.4344,2.4417,2.4422,2.4454,2.4516,2.4531,2.4555,2.4615,2.4654,2.467,2.4658,2.4674,2.4677,2.4693,2.4642,2.4637,2.4632,2.4617,2.461,2.4693,2.4693,2.4693,2.4694,0,2.4159,2.4183,2.4179,2.4241,2.4266,2.4276,2.4343,2.436,2.4401,2.4444,2.4463,2.4513,2.4554,2.4561,2.4599,2.4583,2.4595,2.463,2.4672,2.4617,2.4604,2.4599,2.4686,2.4688,2.4689,2.469,0,0,2.4034,2.4135,2.4133,2.4163,2.4233,2.4252,2.4265,2.4308,2.4322,2.4362,2.4376,2.4413,2.4447,2.4473,2.4517,2.4518,2.4477,2.4553,2.4555,2.4538,2.4463,2.4437,2.4429,2.4506,2.4505,2.4504,2.4459,0,2.398,2.4011,2.4073,2.4084,2.4107,2.4178,2.419,2.4234,2.4275,2.43,2.4345,2.4371,2.4413,2.443,2.4434,2.4481,2.4463,2.4485,2.4518,2.4518,2.4504,2.4422,2.4394,2.4349,2.4455,2.4454,2.4453,0,2.3921,2.3961,2.3976,2.4047,2.4059,2.4069,2.4114,2.4137,2.4188,2.4218,2.4249,2.4298,2.4315,2.4354,2.438,2.4393,2.441,2.4435,2.4435,2.4441,2.4482,2.4426,2.4336,2.433,2.4446,2.4446,2.4447,0,2.383,2.3887,2.3904,2.3927,2.401,2.4016,2.405,2.4103,2.4126,2.4165,2.4181,2.422,2.4241,2.427,2.4328,2.4351,2.4347,2.4391,2.4373,2.4371,2.4368,2.4368,2.4281,2.4378,2.4378,2.4378,2.4379,0,2.3764,2.377,2.3865,2.3875,2.3884,2.3955,2.3961,2.4002,2.4049,2.4068,2.413,2.4146,2.4222,2.4246,2.4291,2.4306,2.4315,2.4339,2.4351,2.4334,2.4331,2.4346,2.4351,2.4377,2.4377,2.4377,2.4378,0,2.3663,2.3727,2.375,2.3828,2.3848,2.3851,2.3917,2.3929,2.3975,2.3998,2.4008,2.4079,2.4112,2.4173,2.4221,2.4251,2.4257,2.4277,2.424,2.4248,2.4227,2.4228,2.4147,2.414,2.424,2.4239,2.4238,0,2.3617,2.3624,2.3703,2.3722,2.3755,2.3783,2.3808,2.3878,2.39,2.3961,2.3965,2.4003,2.4037,2.4085,2.4141,2.4178,2.4201,2.417,2.4206,2.419,2.4201,2.42,2.4202,2.4161,2.416,2.4158,2.4157,0,2.3528,2.3561,2.3595,2.3641,2.3669,2.3708,2.3749,2.376,2.3839,2.3861,2.3897,2.3924,2.3975,2.4012,2.4058,2.4092,2.4138,2.4146,2.4144,2.4126,2.4105,2.4118,2.4218,2.4147,2.4148,2.4149,2.4149,2.415,2.3455,2.3465,2.3524,2.356,2.36,2.3638,2.3654,2.3704,2.3735,2.3785,2.3823,2.3856,2.3908,2.3976,2.4007,2.4033,2.4054,2.4051,2.405,2.4049,2.4042,2.4101,2.4041,2.4042,2.4042,2.4042,2.4043,0,2.3371,2.3413,2.3446,2.3504,2.3533,2.3576,2.3625,2.3646,2.3675,2.3721,2.3754,2.3795,2.3832,2.3891,2.3932,2.3942,2.3964,2.395,2.395,2.3958,2.402,2.4018,2.3932,2.3932,2.3932,2.3932,2.3932,2.3932,2.333,2.3351,2.339,2.3432,2.3473,2.3508,2.3532,2.3568,2.3605,2.365,2.3682,2.3721,2.3773,2.3819,2.3854,2.387,2.3883,2.3863,2.3885,2.3943,2.3953,2.3963,2.3962,2.3865,2.3865,2.3821,2.3821,2.3821]}]]